{"data":{"norad_id":56828,"epoch":"2026-09-20T21:47:40.579584Z","epoch_age_seconds":82546,"freshness":"FRESH","line1":"1 56828U 23079F   26263.90810856  .00000534  00000+0  28938-4 0  9991","line2":"2 56828  43.0037  84.6262 0001494 267.4313  92.6367 15.27584499182749","mean_motion":15.27584499,"eccentricity":0.0001494,"inclination_deg":43.0037,"raan_deg":84.6262,"arg_perigee_deg":267.4313,"mean_anomaly_deg":92.6367,"bstar":2.8938e-5,"rev_number":18274,"period_min":94.266471081807,"perigee_km":482.01056525812,"apogee_km":484.0606836383,"semimajor_km":6861.1726244482,"source":"CELESTRAK","updated_at":"2026-09-21T09:00:33.515738Z"}}